Wetterdaten: aktuell Montag, 04.05.2026 13:03
Datum Zeit Temp. A. Feuchte A. Luftdruck Regen Wind Richtung Richtung Sonnenschein Regendauer Taupunkt Windchill
04.05.2026 13:03 23,8 °C 44 % 1010,9 hPa 0,0 mm 20,1 km/h (4 Bft) S-SO 150 ° 6 min 0 min 10,8 °C 23,8 °C
04.05.2026 12:58 23,6 °C 45 % 1009,9 hPa 0,0 mm 19,1 km/h (3 Bft) O 90 ° 5 min 0 min 11,0 °C 23,6 °C
04.05.2026 12:53 23,4 °C 47 % 1009,9 hPa 0,0 mm 12,9 km/h (3 Bft) O-SO 105 ° 5 min 0 min 11,4 °C 23,4 °C
04.05.2026 12:48 24,4 °C 46 % 1009,7 hPa 0,0 mm 7,3 km/h (2 Bft) S-SO 160 ° 5 min 0 min 12,0 °C 24,4 °C
04.05.2026 12:43 23,6 °C 47 % 1010,9 hPa 0,0 mm 20,6 km/h (4 Bft) SO 125 ° 5 min 0 min 11,6 °C 23,6 °C
04.05.2026 12:38 23,6 °C 50 % 1010,9 hPa 0,0 mm 19,3 km/h (3 Bft) O 90 ° 5 min 0 min 12,6 °C 23,6 °C
04.05.2026 12:33 23,0 °C 48 % 1011,0 hPa 0,0 mm 19,7 km/h (3 Bft) S-SO 165 ° 6 min 0 min 11,4 °C 23,0 °C
04.05.2026 12:28 22,8 °C 48 % 1011,1 hPa 0,0 mm 17,4 km/h (3 Bft) SW 215 ° 5 min 0 min 11,2 °C 22,8 °C
04.05.2026 12:23 22,9 °C 48 % 1011,0 hPa 0,0 mm 18,2 km/h (3 Bft) SO 135 ° 5 min 0 min 11,3 °C 22,9 °C
04.05.2026 12:18 22,3 °C 51 % 1011,1 hPa 0,0 mm 17,2 km/h (3 Bft) O-SO 115 ° 4 min 0 min 11,7 °C 22,3 °C
04.05.2026 12:13 22,8 °C 48 % 1011,1 hPa 0,0 mm 23,9 km/h (4 Bft) SO 145 ° 5 min 0 min 11,2 °C 22,8 °C
04.05.2026 12:08 23,0 °C 48 % 1011,0 hPa 0,0 mm 20,2 km/h (4 Bft) W 280 ° 6 min 0 min 11,4 °C 23,0 °C
04.05.2026 12:03 22,5 °C 50 % 1011,1 hPa 0,0 mm 22,9 km/h (4 Bft) N 350 ° 5 min 0 min 11,5 °C 22,5 °C
04.05.2026 11:58 22,3 °C 52 % 1011,1 hPa 0,0 mm 21,8 km/h (4 Bft) S 170 ° 4 min 0 min 12,0 °C 22,3 °C
04.05.2026 11:53 22,9 °C 51 % 1011,0 hPa 0,0 mm 20,6 km/h (4 Bft) S-SO 150 ° 5 min 0 min 12,2 °C 22,9 °C
04.05.2026 11:48 22,4 °C 52 % 1011,1 hPa 0,0 mm 13,8 km/h (3 Bft) SO 125 ° 6 min 0 min 12,1 °C 22,4 °C
04.05.2026 11:43 21,7 °C 53 % 1011,3 hPa 0,0 mm 18,4 km/h (3 Bft) S 170 ° 5 min 0 min 11,7 °C 21,7 °C
04.05.2026 11:38 22,1 °C 52 % 1011,2 hPa 0,0 mm 18,1 km/h (3 Bft) S-SO 165 ° 5 min 0 min 11,8 °C 22,1 °C
04.05.2026 11:33 22,1 °C 53 % 1011,2 hPa 0,0 mm 16,4 km/h (3 Bft) SO 140 ° 4 min 0 min 12,1 °C 22,1 °C
04.05.2026 11:28 21,1 °C 54 % 1012,4 hPa 0,0 mm 16,6 km/h (3 Bft) S-SO 160 ° 6 min 0 min 11,4 °C 21,1 °C
04.05.2026 11:23 20,8 °C 56 % 1012,5 hPa 0,0 mm 17,2 km/h (3 Bft) S 185 ° 5 min 0 min 11,7 °C 20,8 °C
04.05.2026 11:18 22,0 °C 53 % 1012,3 hPa 0,0 mm 15,2 km/h (3 Bft) S-SO 155 ° 5 min 0 min 12,0 °C 22,0 °C
04.05.2026 11:13 21,4 °C 54 % 1011,3 hPa 0,0 mm 19,7 km/h (3 Bft) S-SO 155 ° 5 min 0 min 11,7 °C 21,4 °C
04.05.2026 11:08 20,9 °C 56 % 1011,4 hPa 0,0 mm 22,6 km/h (4 Bft) S-SO 165 ° 5 min 0 min 11,8 °C 20,9 °C
04.05.2026 11:03 20,8 °C 56 % 1011,4 hPa 0,0 mm 16,3 km/h (3 Bft) S-SO 165 ° 6 min 0 min 11,7 °C 20,8 °C
04.05.2026 10:58 21,4 °C 56 % 1012,4 hPa 0,0 mm 15,4 km/h (3 Bft) W 275 ° 5 min 0 min 12,3 °C 21,4 °C
04.05.2026 10:53 21,0 °C 54 % 1012,4 hPa 0,0 mm 12,2 km/h (2 Bft) SO 135 ° 5 min 0 min 11,3 °C 21,0 °C
04.05.2026 10:48 20,7 °C 56 % 1012,5 hPa 0,0 mm 17,8 km/h (3 Bft) S-SO 165 ° 5 min 0 min 11,6 °C 20,7 °C
04.05.2026 10:43 20,5 °C 57 % 1011,5 hPa 0,0 mm 8,2 km/h (2 Bft) S-SO 155 ° 5 min 0 min 11,7 °C 20,5 °C
04.05.2026 10:38 19,9 °C 57 % 1011,6 hPa 0,0 mm 8,9 km/h (2 Bft) N-NO 15 ° 4 min 0 min 11,1 °C 19,9 °C
04.05.2026 10:33 19,9 °C 58 % 1011,6 hPa 0,0 mm 9,6 km/h (2 Bft) S-SO 155 ° 6 min 0 min 11,4 °C 19,9 °C
04.05.2026 10:28 19,6 °C 58 % 1012,7 hPa 0,0 mm 9,8 km/h (2 Bft) SO 125 ° 3 min 0 min 11,1 °C 19,6 °C
04.05.2026 10:23 20,1 °C 57 % 1012,6 hPa 0,0 mm 9,6 km/h (2 Bft) SO 140 ° 7 min 0 min 11,3 °C 20,1 °C
04.05.2026 10:18 19,7 °C 57 % 1012,7 hPa 0,0 mm 10,9 km/h (2 Bft) SO 135 ° 3 min 0 min 10,9 °C 19,7 °C
04.05.2026 10:13 19,4 °C 57 % 1012,7 hPa 0,0 mm 7,1 km/h (2 Bft) O 100 ° 7 min 0 min 10,7 °C 19,4 °C
04.05.2026 10:08 18,9 °C 61 % 1012,8 hPa 0,0 mm 15,8 km/h (3 Bft) SO 145 ° 5 min 0 min 11,2 °C 18,9 °C
04.05.2026 10:03 18,6 °C 59 % 1012,9 hPa 0,0 mm 17,6 km/h (3 Bft) O-SO 110 ° 3 min 0 min 10,4 °C 18,6 °C
04.05.2026 09:58 18,7 °C 59 % 1012,9 hPa 0,0 mm 14,9 km/h (3 Bft) O 95 ° 5 min 0 min 10,5 °C 18,7 °C
04.05.2026 09:53 18,6 °C 61 % 1012,9 hPa 0,0 mm 17,0 km/h (3 Bft) O-NO 70 ° 5 min 0 min 10,9 °C 18,6 °C
04.05.2026 09:48 18,6 °C 61 % 1012,9 hPa 0,0 mm 8,0 km/h (2 Bft) W-SW 240 ° 5 min 0 min 10,9 °C 18,6 °C
04.05.2026 09:43 18,6 °C 61 % 1012,9 hPa 0,0 mm 0,2 km/h (0 Bft) NO 45 ° 5 min 0 min 10,9 °C 18,6 °C
04.05.2026 09:38 17,8 °C 63 % 1013,0 hPa 0,0 mm 5,5 km/h (2 Bft) O-SO 120 ° 5 min 0 min 10,7 °C 17,8 °C
04.05.2026 09:33 17,4 °C 63 % 1013,1 hPa 0,0 mm 7,4 km/h (2 Bft) SO 125 ° 2 min 0 min 10,3 °C 17,4 °C
04.05.2026 09:28 17,1 °C 62 % 1012,1 hPa 0,0 mm 8,2 km/h (2 Bft) SW 235 ° 0 min 0 min 9,8 °C 17,1 °C
04.05.2026 09:23 17,3 °C 62 % 1012,1 hPa 0,0 mm 9,6 km/h (2 Bft) O 100 ° 2 min 0 min 9,9 °C 17,3 °C
04.05.2026 09:18 17,4 °C 62 % 1012,0 hPa 0,0 mm 0,4 km/h (0 Bft) O 80 ° 4 min 0 min 10,0 °C 17,4 °C
04.05.2026 09:13 16,8 °C 63 % 1013,2 hPa 0,0 mm 2,9 km/h (1 Bft) S-SW 205 ° 6 min 0 min 9,7 °C 16,8 °C
04.05.2026 09:08 16,7 °C 63 % 1013,2 hPa 0,0 mm 7,8 km/h (2 Bft) SO 125 ° 5 min 0 min 9,6 °C 16,7 °C
04.05.2026 09:03 17,4 °C 61 % 1013,1 hPa 0,0 mm 5,5 km/h (2 Bft) SO 145 ° 5 min 0 min 9,8 °C 17,4 °C
_ Min-Zeit 05:33 16:57 17:47 - 17:57 - - - - 18:42 05:33
Minimum _ 10,4 °C 21 % 1007,0 hPa - 0,0 km/h (0 Bft) - - - - 2,3 °C 10,4 °C
_ Max-Zeit 16:07 06:48 07:03 14:02 12:13 - - 16:07 14:02 12:38 16:07
Maximum _ 28,6 °C 79 % 1014,2 hPa 0,0 mm 23,9 km/h
SO (4 Bft)
- - 7 min 0 min 12,6 °C 28,6 °C
Durchschnitt _ 19,7 °C 48 % 1010,5 hPa #0,0 mm 5,5 km/h (2 Bft) W - #4:41 h #0 min. 7,1 °C 19,7 °C